W5TUX Weather Reports


time (UTC)temp
F
wind
direction
speed
knots
gust
knots
rain 1hr
in
rain 24hr
in
rain mn
in
humidity
%
barometer
mb
20260505195815 88 205 1.7 1.7 0.00 0.00 0.00 59 1009.7
20260505195313 87 224 1.7 2.6 0.00 0.00 0.00 58 1009.7
20260505194810 87 249 1.7 2.6 0.00 0.00 0.00 59 1009.7
20260505194307 86 165 2.6 2.6 0.00 0.00 0.00 60 1009.8
20260505193802 86 243 2.6 3.5 0.00 0.00 0.00 60 1009.9
20260505193301 86 232 3.5 3.5 0.00 0.00 0.00 61 1009.7
20260505192758 86 204 7.0 8.7 0.00 0.00 0.00 61 1009.7
20260505192256 86 260 4.3 7.0 0.00 0.00 0.00 62 1009.7
20260505191754 86 273 2.6 3.5 0.00 0.00 0.00 61 1009.8
20260505191252 84 262 4.3 6.1 0.00 0.00 0.00 62 1009.7
20260505190748 84 188 2.6 5.2 0.00 0.00 0.00 65 1009.7
20260505190243 84 197 3.5 6.1 0.00 0.00 0.00 64 1009.8
20260505185740 84 234 3.5 5.2 0.00 0.00 0.00 64 1010.0
20260505185236 84 238 2.6 2.6 0.00 0.00 0.00 64 1009.9
20260505184732 84 191 2.6 3.5 0.00 0.00 0.00 64 1009.8
20260505184230 84 219 2.6 2.6 0.00 0.00 0.00 65 1009.9
20260505183726 84 231 1.7 2.6 0.00 0.00 0.00 64 1010.0
20260505183224 83 208 2.6 3.5 0.00 0.00 0.00 67 1009.8
20260505182720 83 217 1.7 2.6 0.00 0.00 0.00 66 1010.0
20260505182217 83 223 3.5 3.5 0.00 0.00 0.00 66 1009.9
20260505181713 82 214 3.5 3.5 0.00 0.00 0.00 66 1010.2
20260505181211 82 237 5.2 7.0 0.00 0.00 0.00 66 1010.3
20260505180707 83 227 5.2 7.0 0.00 0.00 0.00 65 1010.2
20260505180204 83 256 2.6 2.6 0.00 0.00 0.00 66 1010.0
20260505175700 82 233 1.7 2.6 0.00 0.00 0.00 67 1009.9
20260505175157 82 217 2.6 3.5 0.00 0.00 0.00 67 1010.0
20260505174653 82 228 5.2 7.0 0.00 0.00 0.00 67 1010.2
20260505174149 81 224 5.2 6.1 0.00 0.00 0.00 68 1010.1
20260505173646 81 257 6.1 7.8 0.00 0.00 0.00 68 1010.1
20260505173143 80 218 6.1 8.7 0.00 0.00 0.00 69 1010.1
20260505172641 81 226 4.3 5.2 0.00 0.00 0.00 68 1010.1
20260505172138 80 233 3.5 3.5 0.00 0.00 0.00 69 1010.2
20260505171637 80 221 2.6 2.6 0.00 0.00 0.00 70 1010.0
20260505171135 81 253 4.3 5.2 0.00 0.00 0.00 70 1009.8
20260505170632 81 215 1.7 1.7 0.00 0.00 0.00 70 1010.3
20260505170128 80 260 3.5 3.5 0.00 0.00 0.00 69 1010.1
20260505165623 81 196 11.3 15.6 0.00 0.00 0.00 69 1010.1
20260505165120 80 248 2.6 3.5 0.00 0.00 0.00 70 1009.9
20260505164615 80 284 2.6 3.5 0.00 0.00 0.00 70 1010.2
20260505164113 79 237 2.6 5.2 0.00 0.00 0.00 71 1010.2
20260505163611 78 205 3.5 6.1 0.00 0.00 0.00 71 1010.1
20260505163108 78 206 7.0 8.7 0.00 0.00 0.00 72 1010.3
20260505162606 79 195 1.7 1.7 0.00 0.00 0.00 71 1010.3
20260505162103 79 259 2.6 2.6 0.00 0.00 0.00 70 1010.0
20260505161600 79 230 3.5 3.5 0.00 0.00 0.00 71 1010.1
20260505161058 79 219 1.7 2.6 0.00 0.00 0.00 71 1010.0
20260505160555 79 212 7.0 8.7 0.00 0.00 0.00 70 1009.9
20260505153032 77 213 7.8 13.9 0.00 0.00 0.00 74 1009.7
20260505152529 77 185 4.3 7.0 0.00 0.00 0.00 74 1009.7
20260505152024 76 202 5.2 6.1 0.00 0.00 0.00 76 1009.5
20260505151519 76 233 10.4 14.8 0.00 0.00 0.00 76 1009.9
20260505151017 76 215 8.7 9.6 0.00 0.00 0.00 76 1010.0
20260505150513 76 179 3.5 3.5 0.00 0.00 0.00 76 1009.9
20260505140438 74 205 1.7 1.7 0.00 0.00 0.00 80 1009.9
20260505124852 72 221 5.2 6.1 0.00 0.00 0.00 82 1009.7
20260505124349 72 224 1.7 2.6 0.00 0.00 0.00 82 1009.8
20260505123845 73 229 2.6 2.6 0.00 0.00 0.00 82 1009.5
20260505123342 73 154 1.7 1.7 0.00 0.00 0.00 81 1009.4
20260505122837 73 216 1.7 1.7 0.00 0.00 0.00 81 1009.4
20260505122335 73 210 3.5 3.5 0.00 0.00 0.00 82 1009.4
20260505121832 73 205 4.3 5.2 0.00 0.00 0.00 81 1009.3
20260505121329 72 191 5.2 7.8 0.00 0.00 0.00 82 1009.3
20260505120825 72 273 1.7 1.7 0.00 0.00 0.00 82 1009.0
20260505120321 72 192 1.7 1.7 0.00 0.00 0.00 82 1009.1
20260505115819 72 171 3.5 3.5 0.00 0.00 0.00 81 1008.9
20260505115317 72 222 6.1 7.8 0.00 0.00 0.00 82 1009.2
20260505114815 72 224 2.6 3.5 0.00 0.00 0.00 82 1009.1
20260505114311 72 213 3.5 6.1 0.00 0.00 0.00 82 1009.0
20260505113808 72 207 4.3 7.0 0.00 0.00 0.00 83 1009.2
20260505113304 72 232 4.3 6.1 0.00 0.00 0.00 82 1009.3
20260505112800 71 207 4.3 6.1 0.00 0.00 0.00 84 1009.0
20260505112258 71 207 1.7 1.7 0.00 0.00 0.00 84 1009.0
20260505111758 71 233 2.6 3.5 0.00 0.00 0.00 84 1008.9
20260505111254 71 225 3.5 3.5 0.00 0.00 0.00 84 1008.8
20260505110750 71 198 2.6 3.5 0.00 0.00 0.00 84 1009.0
20260505110248 71 208 2.6 2.6 0.00 0.00 0.00 84 1008.8
20260505101722 72 237 7.0 8.7 0.00 0.00 0.00 83 1008.7
20260505101218 72 199 1.7 2.6 0.00 0.00 0.00 82 1009.0
20260505100714 72 228 3.5 5.2 0.00 0.00 0.00 82 1008.9
20260505100211 72 222 3.5 6.1 0.00 0.00 0.00 82 1008.8
20260505095707 72 209 4.3 6.1 0.00 0.00 0.00 83 1008.9
20260505095205 72 213 9.6 13.9 0.00 0.00 0.00 83 1009.0
20260505094700 71 224 7.0 8.7 0.00 0.00 0.00 83 1009.0
20260505094157 71 198 2.6 2.6 0.00 0.00 0.00 83 1009.0
20260505093653 71 215 8.7 12.2 0.00 0.00 0.00 83 1008.9
20260505093151 71 209 5.2 7.0 0.00 0.00 0.00 83 1009.1
20260505092647 71 232 6.1 8.7 0.00 0.00 0.00 83 1009.1
20260505092146 71 221 4.3 6.1 0.00 0.00 0.00 84 1009.4
20260505091643 71 230 2.6 2.6 0.00 0.00 0.00 84 1009.1
20260505091141 71 171 3.5 7.0 0.00 0.00 0.00 84 1009.2
20260505090638 71 215 2.6 3.5 0.00 0.00 0.00 84 1009.2
20260505090137 71 201 2.6 3.5 0.00 0.00 0.00 84 1009.2
20260505085633 71 208 2.6 3.5 0.00 0.00 0.00 84 1009.2
20260505085132 71 208 6.1 9.6 0.00 0.00 0.00 84 1009.1
20260505084629 71 148 5.2 7.8 0.00 0.00 0.00 84 1009.2
20260505084127 71 198 1.7 1.7 0.00 0.00 0.00 84 1009.2
20260505083625 71 237 7.8 13.0 0.00 0.00 0.00 84 1009.3
20260505083121 71 231 3.5 5.2 0.00 0.00 0.00 84 1009.1
20260505082617 71 223 5.2 7.0 0.00 0.00 0.00 83 1009.1
20260505082114 71 203 3.5 5.2 0.00 0.00 0.00 83 1009.3
20260505081610 71 222 7.0 9.6 0.00 0.00 0.00 83 1009.1
20260505081108 71 179 5.2 8.7 0.00 0.00 0.00 83 1009.4
20260505080603 71 231 2.6 3.5 0.00 0.00 0.00 82 1009.4
20260505080100 71 211 7.0 8.7 0.00 0.00 0.00 82 1009.2
20260505075556 71 206 9.6 13.9 0.00 0.00 0.00 82 1009.4
20260505075053 71 191 4.3 6.1 0.00 0.00 0.00 82 1009.5
20260505074550 71 213 6.1 9.6 0.00 0.00 0.00 81 1009.6
20260505074047 72 203 7.0 11.3 0.00 0.00 0.00 81 1009.7
20260505073544 72 228 4.3 5.2 0.00 0.00 0.00 81 1009.6
20260505073043 72 224 5.2 6.1 0.00 0.00 0.00 81 1009.7
20260505072538 72 229 3.5 3.5 0.00 0.00 0.00 80 1009.9
20260505072035 72 238 5.2 6.1 0.00 0.00 0.00 80 1009.8
20260505071530 72 210 4.3 5.2 0.00 0.00 0.00 79 1010.1
20260505071029 72 221 6.1 7.8 0.00 0.00 0.00 79 1010.1
20260505070526 72 222 3.5 5.2 0.00 0.00 0.00 79 1010.2
20260505070022 72 223 4.3 5.2 0.00 0.00 0.00 78 1010.3
20260505065518 72 225 5.2 7.8 0.00 0.00 0.00 78 1010.1
20260505065014 73 226 4.3 6.1 0.00 0.00 0.00 78 1010.2
20260505064512 73 227 7.8 11.3 0.00 0.00 0.00 77 1010.4
20260505064010 73 155 4.3 6.1 0.00 0.00 0.00 77 1010.7
20260505063507 73 215 3.5 3.5 0.00 0.00 0.00 77 1010.3
20260505063008 73 216 3.5 5.2 0.00 0.00 0.00 77 1010.6
20260505062505 73 197 5.2 7.8 0.00 0.00 0.00 76 1010.6
20260505062002 73 216 7.8 11.3 0.00 0.00 0.00 76 1010.4
20260505061500 73 223 6.1 9.6 0.00 0.00 0.00 76 1010.6
20260505060957 73 177 5.2 6.1 0.00 0.00 0.00 76 1010.7
20260505060454 73 197 5.2 7.0 0.00 0.00 0.00 76 1010.4
20260505055950 73 215 5.2 6.1 0.00 0.00 0.00 75 1010.5
20260505055446 73 207 6.1 7.8 0.00 0.00 0.00 75 1010.5
20260505054943 73 215 5.2 8.7 0.00 0.00 0.00 75 1010.6
20260505054441 73 203 6.1 7.8 0.00 0.00 0.00 74 1010.7
20260505053939 73 226 1.7 2.6 0.00 0.00 0.00 74 1010.7
20260505053435 73 248 4.3 7.0 0.00 0.00 0.00 74 1010.7
20260505052932 73 221 4.3 6.1 0.00 0.00 0.00 74 1011.0
20260505052429 73 139 3.5 6.1 0.00 0.00 0.00 74 1011.0
20260505051926 73 228 7.8 9.6 0.00 0.00 0.00 73 1011.1
20260505051423 73 208 5.2 6.1 0.00 0.00 0.00 73 1011.1
20260505050921 73 229 5.2 6.1 0.00 0.00 0.00 73 1011.3
20260505050420 74 235 5.2 7.0 0.00 0.00 0.00 73 1011.3
20260505041347 74 191 5.2 7.8 0.00 0.00 0.00 71 1011.3
20260505040844 74 228 2.6 5.2 0.00 0.00 0.00 71 1011.3
20260505040342 74 227 2.6 3.5 0.00 0.00 0.00 70 1011.3
20260505035838 74 217 3.5 6.1 0.00 0.00 0.00 70 1011.3
20260505035334 74 176 5.2 7.0 0.00 0.00 0.00 71 1011.2
20260505034832 74 223 4.3 6.1 0.00 0.00 0.00 70 1011.0
20260505034328 74 173 5.2 7.0 0.00 0.00 0.00 70 1011.1
20260505033825 74 225 4.3 7.0 0.00 0.00 0.00 70 1011.3
20260505033322 74 218 5.2 7.8 0.00 0.00 0.00 70 1011.2
20260505032820 74 195 5.2 6.1 0.00 0.00 0.00 70 1011.2
20260505032316 74 257 3.5 5.2 0.00 0.00 0.00 70 1011.4
20260505031814 74 243 3.5 5.2 0.00 0.00 0.00 70 1011.3
20260505031310 74 146 4.3 7.0 0.00 0.00 0.00 70 1011.2
20260505030808 74 215 2.6 2.6 0.00 0.00 0.00 70 1011.3
20260505030303 74 169 2.6 3.5 0.00 0.00 0.00 70 1011.4
20260505025758 74 190 3.5 3.5 0.00 0.00 0.00 70 1011.5
20260505025256 75 190 2.6 3.5 0.00 0.00 0.00 69 1011.3
20260505024754 75 215 3.5 5.2 0.00 0.00 0.00 69 1011.3
20260505024252 75 221 4.3 5.2 0.00 0.00 0.00 68 1011.2
20260505023750 75 194 3.5 5.2 0.00 0.00 0.00 69 1011.3
20260505023246 75 187 4.3 5.2 0.00 0.00 0.00 68 1011.3
20260505022743 75 210 4.3 5.2 0.00 0.00 0.00 68 1011.2
20260505022240 75 210 4.3 5.2 0.00 0.00 0.00 68 1011.2
20260505021737 75 241 6.1 7.0 0.00 0.00 0.00 68 1011.3
20260505021234 75 203 1.7 2.6 0.00 0.00 0.00 67 1011.2
20260505020729 75 248 1.7 2.6 0.00 0.00 0.00 67 1011.3
20260505020225 75 216 3.5 5.2 0.00 0.00 0.00 67 1011.2
20260505015723 75 186 1.7 2.6 0.00 0.00 0.00 67 1011.2
20260505015219 76 216 3.5 5.2 0.00 0.00 0.00 67 1011.2
20260505014716 76 205 5.2 8.7 0.00 0.00 0.00 66 1011.2
20260505014214 76 189 4.3 7.0 0.00 0.00 0.00 66 1011.2
20260505013710 76 216 3.5 3.5 0.00 0.00 0.00 66 1011.2
20260505013207 76 228 1.7 2.6 0.00 0.00 0.00 66 1011.2
20260505012706 76 208 2.6 3.5 0.00 0.00 0.00 66 1011.2
20260505012203 76 226 4.3 6.1 0.00 0.00 0.00 65 1011.0
20260505011658 76 202 1.7 2.6 0.00 0.00 0.00 65 1011.1
20260505011155 76 208 2.6 3.5 0.00 0.00 0.00 65 1010.9
20260505010651 77 201 4.3 5.2 0.00 0.00 0.00 64 1011.3
20260505010148 77 205 2.6 3.5 0.00 0.00 0.00 64 1011.2
20260505005644 77 210 5.2 7.8 0.00 0.00 0.00 64 1011.0
20260505005141 77 218 7.0 8.7 0.00 0.00 0.00 63 1011.3
20260505004638 77 236 3.5 5.2 0.00 0.00 0.00 63 1011.0
20260505004135 77 241 6.1 9.6 0.00 0.00 0.00 62 1011.1
20260505003632 77 232 11.3 13.0 0.00 0.00 0.00 62 1011.0
20260505003129 77 222 6.1 7.8 0.00 0.00 0.00 62 1011.2
20260505002625 77 231 4.3 7.8 0.00 0.00 0.00 62 1011.0
20260505002124 77 207 6.1 7.8 0.00 0.00 0.00 62 1011.1
20260505001621 78 207 7.8 8.7 0.00 0.00 0.00 61 1011.2
20260505001118 78 245 13.0 16.5 0.00 0.00 0.00 61 1011.2
20260505000615 78 226 3.5 7.8 0.00 0.00 0.00 61 1011.3
20260505000113 78 217 10.4 13.9 0.00 0.00 0.00 61 1011.1
20260504235609 78 227 6.1 8.7 0.00 0.00 0.00 60 1011.3
20260504235106 78 216 5.2 7.8 0.00 0.00 0.00 60 1011.4
20260504234603 78 234 2.6 3.5 0.00 0.00 0.00 60 1011.4
20260504234100 78 224 5.2 7.8 0.00 0.00 0.00 60 1011.3
20260504233555 78 226 1.7 2.6 0.00 0.00 0.00 60 1011.3
20260504233052 78 218 3.5 5.2 0.00 0.00 0.00 59 1011.2
20260504232549 78 224 4.3 6.1 0.00 0.00 0.00 60 1011.1
20260504232047 78 238 7.8 11.3 0.00 0.00 0.00 59 1011.6
20260504231543 79 241 7.8 9.6 0.00 0.00 0.00 59 1011.5
20260504231039 79 187 7.0 13.9 0.00 0.00 0.00 58 1011.7
20260504230536 79 228 3.5 3.5 0.00 0.00 0.00 58 1011.6
20260504230035 80 198 4.3 6.1 0.00 0.00 0.00 58 1011.5
20260504225531 80 207 4.3 6.1 0.00 0.00 0.00 58 1012.0
20260504225029 80 216 3.5 5.2 0.00 0.00 0.00 57 1012.0
20260504224525 80 204 8.7 16.5 0.00 0.00 0.00 57 1011.9
20260504224022 80 231 2.6 2.6 0.00 0.00 0.00 58 1011.9
20260504223519 80 195 3.5 3.5 0.00 0.00 0.00 58 1011.7
20260504223015 81 221 7.0 7.0 0.00 0.00 0.00 56 1011.7
20260504222512 80 215 1.7 2.6 0.00 0.00 0.00 57 1011.3
20260504222009 80 201 3.5 3.5 0.00 0.00 0.00 57 1011.8
20260504221506 79 219 3.5 3.5 0.00 0.00 0.00 57 1011.7
20260504221003 80 226 7.8 8.7 0.00 0.00 0.00 57 1012.1
20260504220500 80 232 5.2 8.7 0.00 0.00 0.00 57 1012.1
20260504215956 80 190 5.2 7.8 0.00 0.00 0.00 57 1011.9
20260504215453 80 171 6.1 9.6 0.00 0.00 0.00 57 1012.1
20260504214950 80 201 9.6 18.2 0.00 0.00 0.00 56 1012.0
20260504214446 80 230 4.3 7.0 0.00 0.00 0.00 55 1012.3
20260504213943 81 220 5.2 7.0 0.00 0.00 0.00 56 1012.6
20260504213439 80 203 3.5 5.2 0.00 0.00 0.00 56 1012.6
20260504212937 80 225 3.5 5.2 0.00 0.00 0.00 57 1012.4
20260504212432 80 227 3.5 3.5 0.00 0.00 0.00 56 1012.6
20260504211930 80 216 5.2 7.0 0.00 0.00 0.00 55 1012.7
20260504211426 80 214 3.5 3.5 0.00 0.00 0.00 55 1012.8
20260504210924 80 218 7.0 8.7 0.00 0.00 0.00 55 1012.8
20260504210421 80 235 3.5 5.2 0.00 0.00 0.00 54 1012.7
20260504205918 80 204 9.6 12.2 0.00 0.00 0.00 53 1013.2
20260504205415 80 232 5.2 6.1 0.00 0.00 0.00 53 1013.3
20260504204913 80 215 2.6 2.6 0.00 0.00 0.00 54 1013.2
20260504204411 80 187 7.0 11.3 0.00 0.00 0.00 53 1013.4
20260504203911 80 188 6.1 11.3 0.00 0.00 0.00 53 1013.5
20260504203407 80 169 5.2 7.0 0.00 0.00 0.00 52 1013.5
20260504202903 80 227 3.5 5.2 0.00 0.00 0.00 53 1013.6
20260504202400 80 230 5.2 7.8 0.00 0.00 0.00 53 1013.8
20260504201856 80 198 6.1 7.0 0.00 0.00 0.00 53 1014.0
20260504201354 79 253 7.8 11.3 0.00 0.00 0.00 53 1014.0
20260504200851 79 218 4.3 6.1 0.00 0.00 0.00 53 1014.2
20260504200348 80 229 7.0 12.2 0.00 0.00 0.00 52 1014.2